Wind_Speed
14 14 13 13 13 12 12 12 15 18 27 27 34 39 33 33 35 32 24 21 25 24 22 17 13 12 17 10 17 26 22 16 32 43 50 31 13 29 41 31 29 25 38 42
16 16 15 14 13 12 11 12 13 13 17 28 34 38 35 37 37 33 21 21 29 29 30 24 16 17 17 19 24 19 21 10 13 30 41 42 34 44 34 35 34 37 24 29
17 16 16 16 16 16 15 15 13 15 17 20 21 24 33 38 41 36 25 30 26 25 33 35 36 32 30 27 27 26 23 25 24 4 11 20 12 24 37 39 35 33 35 40
18 17 17 18 18 18 18 18 18 18 13 18 18 19 22 24 28 31 30 29 23 26 28 27 34 37 37 38 34 31 26 20 14 12 11 20 16 18 22 21 34 38 39 39
17 17 17 18 18 20 20 20 20 20 20 19 18 19 24 22 21 22 23 20 25 30 30 39 39 22 17 25 29 26 27 23 22 28 22 17 25 25 21 16 12 22 27 32
17 17 17 17 19 20 21 21 22 21 21 22 23 26 25 24 22 25 25 21 23 30 40 34 30 31 35 34 33 27 26 16 15 11 15 13 17 11 14 16 17 14 20 18
18 18 18 19 19 20 21 19 23 24 28 27 27 27 27 27 26 30 29 24 25 28 25 30 35 32 34 35 38 32 21 17 17 8 9 4 14 12 11 17 23 14 19 17
18 17 16 16 17 20 21 22 24 26 30 29 31 30 31 30 30 32 34 31 29 28 26 23 28 32 40 41 41 37 25 20 18 7 11 17 24 5 7 16 19 10 15 18
18 19 19 20 20 20 25 26 26 27 31 38 31 31 33 33 33 32 33 32 30 33 34 26 28 16 17 6 11 20 28 26 25 11 4 5 2 4 1 8 10 7 3 3
21 21 21 21 21 21 25 26 26 28 34 38 35 36 33 29 30 33 34 29 22 21 34 34 29 22 18 13 16 19 23 28 35 24 13 12 16 11 11 9 4 6 6 3
22 23 23 24 24 24 26 28 28 32 38 40 40 37 37 34 33 35 32 29 27 29 29 31 20 13 22 18 18 20 20 17 16 22 12 12 7 10 9 7 9 15 11 10
26 28 29 28 27 28 30 35 32 33 37 47 44 44 43 44 39 37 34 35 30 17 11 29 24 17 17 24 17 18 18 18 14 14 15 9 8 8 12 19 25 22 23 21
27 27 27 29 32 30 29 34 33 34 38 44 48 47 35 39 40 34 42 41 39 43 32 26 23 18 30 26 25 20 19 17 22 18 16 16 15 16 18 19 22 22 19 17
25 26 28 30 31 34 35 38 36 37 37 45 48 35 30 23 31 37 43 43 37 37 32 24 18 15 22 23 20 23 23 18 21 23 20 17 16 15 15 17 17 17 19 19
23 24 26 28 29 28 34 34 31 32 36 36 25 23 20 21 27 34 36 34 32 36 36 30 34 20 14 16 20 24 24 23 22 22 15 17 20 17 14 13 14 16 14 15
19 21 19 15 19 20 20 23 25 26 30 35 43 34 26 11 11 23 31 28 27 30 24 26 24 23 15 8 23 22 19 20 16 15 15 19 19 17 18 19 21 20 18 15
16 10 4 7 7 11 17 13 12 13 20 29 22 24 11 3 6 11 30 23 28 31 17 14 12 16 19 23 24 19 16 13 14 19 20 22 20 21 23 24 24 21 19 17
11 13 13 9 12 7 5 7 8 6 17 24 13 11 8 6 5 14 21 23 23 22 19 17 18 17 19 21 26 25 20 19 24 22 23 23 24 24 24 23 17 17 15 15
16 13 10 8 9 10 7 6 6 4 7 5 6 8 5 8 7 9 11 11 12 11 17 19 16 21 22 29 21 19 22 22 16 20 23 25 27 23 21 17 15 13 14 15
8 6 6 3 3 4 5 4 2 3 8 13 10 5 5 3 7 5 4 4 7 5 8 10 17 30 30 25 23 23 16 16 14 14 16 16 16 15 13 14 13 13 14 16
8 7 6 4 2 2 2 2 4 5 4 7 8 9 5 4 2 3 5 3 2 3 5 8 9 30 28 21 15 14 16 17 20 21 22 21 8 13 13 12 12 11 13 13
4 4 5 5 3 2 4 4 4 4 4 4 4 5 10 6 5 5 7 5 4 4 3 5 7 16 13 10 12 14 16 21 24 19 19 10 10 11 11 11 11 11 12 12
3 5 5 5 4 4 3 3 4 4 6 7 8 5 8 10 10 3 2 3 3 3 4 5 15 15 14 10 8 11 11 14 17 16 11 8 10 11 10 10 10 9 9 8
3 3 4 4 4 4 5 8 11 11 13 16 15 12 5 9 11 5 3 4 5 4 6 7 12 11 7 7 6 9 8 9 12 9 8 9 10 9 9 8 6 5 4 4
3 3 4 7 9 9 10 9 11 12 11 14 13 16 16 12 5 6 6 5 6 6 7 12 13 10 8 7 8 10 11 10 13 9 9 9 9 8 7 6 5 4 3 2
10 11 9 7 9 6 6 8 6 8 12 12 10 8 10 8 6 7 7 4 5 5 8 9 11 9 10 12 12 11 11 12 11 11 11 10 9 8 8 7 6 5 4 4
4 6 11 13 10 9 11 7 6 3 5 8 5 3 4 4 5 6 7 11 12 9 9 10 9 9 11 13 12 10 10 11 11 11 10 10 10 9 8 6 5 4 4 5
Wind_Direction
206 205 205 206 204 201 202 205 216 220 221 221 232 224 232 236 240 242 255 246 241 241 255 277 279 287 257 253 275 266 271 258 260 260 256 244 250 239 234 232 234 236 240 252
211 213 215 216 216 212 208 210 219 220 218 219 228 230 237 240 243 249 251 255 248 247 258 269 276 271 271 276 277 272 275 264 262 276 267 257 256 248 249 255 253 242 242 252
216 218 221 224 224 224 222 221 220 223 223 242 244 244 247 248 250 251 258 255 262 258 256 256 257 260 266 270 281 287 285 284 254 292 308 285 287 245 251 259 254 254 249 251
220 222 222 227 229 231 230 230 230 231 234 243 247 241 245 248 252 254 254 251 246 252 253 259 254 259 264 273 277 280 285 286 264 243 279 317 330 290 281 262 254 239 255 253
224 228 230 232 234 237 238 240 238 241 246 245 244 238 253 261 258 260 253 246 251 255 257 252 259 259 252 275 282 275 266 262 279 314 307 314 312 316 308 269 264 236 242 240
227 228 232 236 238 241 244 246 249 249 248 247 247 255 265 267 265 262 263 262 259 250 249 258 270 275 265 266 269 265 243 240 284 275 309 306 289 300 303 303 298 314 306 270
229 230 230 235 238 243 247 245 246 246 248 250 253 260 263 261 260 263 263 250 248 256 264 261 264 264 257 253 256 245 248 261 264 255 260 237 294 278 285 285 289 299 321 299
231 231 233 235 239 246 248 247 249 253 257 259 257 258 262 263 261 259 265 258 254 266 271 266 265 258 256 249 242 234 244 257 240 241 229 274 288 252 243 253 286 260 286 316
237 235 237 241 244 251 254 253 252 251 257 258 264 264 262 263 262 262 264 269 270 259 260 258 258 228 205 199 232 237 232 232 229 232 243 243 175 125 343 271 285 156 188 346
240 243 246 251 253 257 262 262 255 249 257 262 262 264 266 264 264 267 270 274 264 254 248 245 257 240 224 208 198 189 196 218 226 236 243 264 252 264 253 239 239 259 273 358
245 248 252 254 256 261 265 268 260 253 256 264 264 264 262 263 260 262 273 281 260 255 237 235 242 252 212 214 199 195 206 196 210 223 230 255 174 179 220 253 269 284 286 294
246 251 252 253 260 268 266 262 257 257 257 265 262 258 259 258 260 261 262 258 253 229 224 240 235 220 202 211 200 208 207 212 207 211 229 179 183 202 260 285 289 291 285 288
248 254 250 254 265 266 254 259 258 254 259 266 265 261 266 262 256 255 259 251 255 248 252 262 229 212 211 209 216 205 213 213 225 239 250 264 274 283 290 292 294 297 286 280
244 250 256 260 263 262 259 257 259 258 257 262 272 269 260 258 255 255 246 254 256 254 245 255 234 209 198 216 227 231 236 233 233 245 269 283 291 292 281 289 301 291 282 275
248 253 261 267 266 262 259 256 248 251 245 250 268 268 262 274 249 243 241 241 237 244 254 247 247 229 190 218 233 231 233 234 236 258 278 282 288 294 298 298 301 278 284 282
247 253 251 276 266 244 216 240 239 242 229 236 255 263 267 289 245 249 222 211 215 225 240 223 216 210 204 216 234 243 240 242 248 263 273 272 278 283 289 283 290 289 291 277
239 227 182 25 144 162 200 221 228 211 200 216 256 282 300 175 25 187 186 212 210 207 191 182 207 207 216 235 246 257 257 252 273 280 274 269 272 273 280 285 288 283 280 270
174 142 107 111 105 101 135 126 124 142 202 210 244 284 274 201 125 92 141 154 159 182 193 208 220 228 239 248 252 254 268 281 281 274 271 270 262 267 276 282 280 279 270 259
156 135 116 96 84 81 77 52 60 76 136 217 260 253 279 209 182 173 174 182 196 210 226 237 249 250 245 249 258 294 292 280 265 264 260 262 268 269 274 275 272 268 261 256
138 128 123 142 114 96 106 149 182 218 237 243 260 246 266 279 243 221 194 212 216 236 248 258 261 265 269 287 290 274 272 263 258 267 284 267 272 266 272 270 267 257 258 258
170 176 194 202 221 278 268 221 201 217 234 245 252 250 236 244 238 216 206 193 195 238 234 235 261 276 295 294 277 262 251 249 259 265 283 264 241 277 269 264 262 261 259 263
238 253 270 291 280 237 250 240 240 252 233 258 274 221 207 200 184 153 181 185 212 219 194 228 257 313 320 300 256 243 246 246 251 268 249 236 255 265 262 262 264 267 271 273
294 300 307 296 257 254 262 254 257 284 296 322 320 291 216 202 197 167 169 218 230 226 233 247 300 320 270 295 233 224 235 244 234 239 230 237 252 259 270 275 274 272 272 275
233 255 271 258 248 247 252 263 266 269 280 278 272 280 245 205 194 197 221 233 221 236 235 251 278 290 244 248 211 203 208 220 233 222 233 238 255 265 265 265 254 245 235 226
258 295 278 243 283 268 286 289 276 277 276 271 249 232 220 203 190 197 228 231 217 234 237 260 272 271 251 249 251 250 239 228 237 252 232 242 250 248 241 216 207 210 217 237
276 248 251 289 303 291 289 288 277 273 296 136 158 166 198 186 196 201 210 224 234 264 287 268 261 255 248 252 257 268 247 232 225 220 225 233 230 223 212 214 223 233 260 272
261 302 313 307 301 275 266 261 246 208 115 120 116 144 170 182 209 219 215 233 251 273 268 270 272 272 268 257 251 235 214 208 211 219 224 221 220 216 216 219 231 255 278 286
Height
2984 2987 2990 2993 2996 2999 3001 3002 3007 3011 3014 3019 3019 3019 3020 3024 3026 3030 3032 3031 3031 3035 3037 3036 3036 3034 3035 3035 3036 3038 3037 3034 3025 3019 3025 3027 3026 3026 3028 3024 3025 3022 3022 3013
2980 2984 2987 2990 2992 2995 2997 3000 3004 3006 3009 3009 3012 3015 3016 3019 3020 3023 3026 3027 3027 3031 3034 3035 3031 3031 3032 3033 3035 3034 3031 3027 3022 3011 3015 3016 3019 3020 3021 3020 3018 3013 3017 3011
2976 2980 2983 2986 2988 2991 2995 2999 3000 3002 3004 3005 3008 3011 3013 3013 3013 3016 3019 3021 3024 3026 3026 3027 3025 3026 3028 3030 3031 3029 3026 3023 3022 3017 3017 3015 3013 3011 3011 3010 3009 3010 3008 3007
2972 2976 2978 2981 2984 2987 2991 2993 2995 2997 3000 3002 3005 3007 3007 3007 3007 3010 3014 3014 3016 3019 3020 3020 3019 3021 3022 3023 3023 3022 3023 3021 3018 3012 3011 3012 3008 3004 3003 2997 2998 2999 3003 3006
2968 2970 2973 2975 2979 2981 2985 2988 2991 2993 2996 2998 3000 3000 3000 3002 3004 3006 3007 3008 3010 3012 3013 3012 3012 3015 3015 3015 3015 3015 3015 3015 3015 3011 3005 3003 3004 3001 2996 2992 2992 2990 2995 2995
2963 2965 2969 2971 2974 2976 2979 2983 2985 2989 2990 2990 2993 2993 2996 2998 2999 2999 2999 3002 3003 3002 3001 3006 3007 3008 3008 3009 3009 3011 3011 3009 3009 3005 3005 3000 2997 2991 2994 2991 2988 2988 2988 2988
2959 2962 2965 2967 2969 2972 2975 2978 2980 2982 2982 2983 2986 2988 2990 2991 2993 2992 2993 2996 2995 2995 2996 2997 2996 2998 2998 3000 3000 3004 3004 3003 3004 3001 3003 3000 2988 2988 2985 2985 2985 2983 2980 2981
2955 2957 2960 2963 2965 2966 2969 2972 2974 2975 2973 2977 2977 2980 2982 2984 2985 2984 2983 2986 2989 2991 2990 2989 2989 2988 2988 2987 2990 2993 2995 2998 2999 2998 2996 2988 2986 2982 2976 2981 2982 2977 2976 2976
2951 2953 2956 2958 2961 2963 2962 2965 2966 2967 2967 2964 2971 2972 2974 2975 2975 2977 2975 2978 2982 2984 2983 2984 2982 2976 2971 2977 2980 2983 2987 2991 2995 2993 2992 2986 2978 2975 2974 2981 2980 2976 2975 2973
2946 2949 2951 2953 2955 2957 2957 2958 2960 2959 2957 2957 2961 2961 2965 2967 2968 2966 2966 2969 2972 2975 2973 2975 2974 2968 2969 2972 2973 2977 2979 2982 2982 2985 2986 2977 2972 2976 2978 2982 2983 2974 2973 2972
2941 2943 2945 2947 2949 2950 2950 2951 2953 2953 2949 2948 2951 2954 2954 2957 2958 2958 2962 2964 2963 2966 2965 2967 2963 2962 2961 2965 2967 2965 2969 2973 2974 2979 2980 2975 2973 2977 2977 2975 2972 2971 2970 2970
2935 2936 2938 2939 2941 2942 2943 2942 2944 2945 2942 2937 2939 2940 2944 2945 2949 2951 2952 2953 2957 2954 2955 2957 2957 2956 2955 2956 2959 2961 2965 2965 2966 2969 2969 2969 2969 2969 2970 2968 2966 2966 2965 2966
2928 2929 2930 2932 2933 2934 2935 2933 2936 2936 2934 2929 2925 2924 2935 2935 2935 2942 2938 2939 2943 2943 2950 2948 2946 2947 2948 2949 2953 2956 2957 2959 2961 2964 2963 2964 2965 2964 2963 2962 2961 2960 2961 2963
2922 2923 2924 2924 2924 2924 2924 2923 2926 2927 2929 2922 2912 2921 2920 2925 2924 2923 2924 2929 2937 2938 2939 2938 2938 2938 2938 2942 2947 2949 2951 2953 2954 2955 2957 2958 2959 2958 2956 2956 2956 2956 2957 2957
2916 2917 2916 2915 2914 2913 2912 2913 2915 2917 2922 2915 2912 2909 2910 2910 2910 2910 2913 2919 2926 2928 2932 2933 2932 2934 2936 2939 2942 2942 2943 2946 2949 2949 2952 2952 2951 2951 2950 2951 2951 2950 2950 2950
2911 2910 2910 2907 2902 2902 2906 2908 2908 2910 2912 2913 2908 2904 2899 2897 2900 2899 2903 2911 2918 2921 2926 2923 2926 2929 2932 2936 2937 2936 2939 2942 2943 2945 2947 2947 2947 2947 2946 2945 2945 2945 2945 2944
2905 2905 2905 2903 2900 2900 2903 2905 2906 2906 2909 2910 2910 2902 2897 2896 2896 2890 2900 2907 2911 2918 2917 2921 2925 2928 2930 2930 2928 2932 2934 2936 2939 2940 2942 2942 2942 2941 2940 2940 2940 2939 2938 2938
2902 2903 2903 2903 2901 2902 2902 2903 2902 2902 2906 2911 2910 2903 2900 2898 2897 2896 2900 2904 2908 2914 2916 2920 2924 2926 2926 2924 2923 2927 2932 2934 2934 2934 2934 2934 2934 2934 2935 2935 2934 2934 2933 2932
2902 2902 2903 2903 2903 2903 2903 2903 2903 2905 2911 2909 2907 2904 2901 2900 2902 2904 2906 2909 2910 2913 2914 2918 2922 2919 2917 2917 2921 2925 2926 2926 2927 2927 2926 2926 2928 2928 2928 2929 2929 2928 2929 2928
2901 2902 2904 2905 2905 2906 2907 2907 2906 2906 2906 2905 2905 2905 2903 2903 2903 2907 2910 2910 2912 2913 2915 2916 2916 2911 2913 2916 2917 2917 2919 2921 2921 2921 2922 2922 2923 2923 2923 2924 2924 2924 2924 2924
2902 2904 2905 2905 2905 2905 2905 2905 2906 2905 2905 2903 2902 2902 2903 2904 2906 2906 2908 2909 2911 2911 2913 2914 2910 2904 2906 2907 2908 2909 2911 2913 2915 2917 2918 2917 2919 2920 2920 2920 2920 2920 2920 2920
2901 2902 2903 2903 2904 2904 2903 2901 2902 2901 2902 2900 2900 2901 2902 2904 2906 2907 2908 2909 2910 2910 2910 2910 2903 2901 2901 2900 2901 2903 2905 2908 2910 2913 2914 2915 2915 2916 2917 2916 2916 2916 2916 2916
2901 2901 2901 2901 2901 2900 2899 2899 2899 2899 2898 2898 2898 2900 2900 2902 2904 2905 2906 2907 2907 2908 2907 2903 2900 2898 2900 2900 2899 2900 2902 2904 2907 2910 2911 2911 2912 2913 2913 2913 2913 2914 2914 2914
2902 2902 2901 2901 2899 2898 2898 2898 2898 2899 2898 2898 2899 2899 2900 2902 2904 2905 2905 2906 2906 2905 2902 2899 2900 2899 2898 2899 2899 2900 2902 2903 2905 2906 2907 2909 2910 2910 2911 2911 2912 2912 2912 2912
2901 2901 2900 2898 2898 2897 2897 2896 2896 2896 2894 2893 2894 2897 2900 2901 2903 2903 2905 2903 2901 2898 2896 2896 2896 2897 2897 2897 2898 2898 2899 2900 2902 2903 2905 2907 2908 2909 2910 2910 2911 2912 2912 2911
2902 2900 2898 2896 2895 2894 2894 2893 2893 2892 2890 2889 2892 2893 2897 2898 2899 2900 2899 2899 2896 2895 2894 2894 2895 2895 2895 2895 2895 2896 2896 2898 2900 2901 2903 2905 2906 2908 2909 2909 2910 2910 2910 2910
2898 2896 2895 2894 2893 2892 2891 2891 2890 2890 2890 2891 2892 2893 2895 2896 2896 2896 2895 2894 2895 2894 2894 2893 2893 2892 2892 2892 2893 2893 2895 2896 2898 2900 2902 2903 2905 2906 2907 2907 2908 2909 2909 2909